Theta_e
357 357 357 345 330 327 320 321 327 326 327 333 334 331 329 334 329 325 348 347 350 352 358 359 365 363 362 362 362 361 361 362 363 364 365 364 363 363 363 363 363 362 362 361 361 361 361 360 360
356 353 346 339 326 316 319 326 324 329 333 336 334 332 331 330 340 342 344 350 350 353 357 356 364 363 362 362 363 362 361 361 362 363 364 364 364 364 364 364 363 361 362 362 360 359 360 360 360
356 349 336 330 326 317 318 327 329 331 334 333 332 335 333 333 341 344 349 350 349 352 354 359 361 362 361 362 362 361 363 361 361 362 364 365 364 364 364 363 363 362 362 361 361 361 360 359 358
348 343 337 325 319 324 325 328 330 330 332 334 333 329 338 344 342 347 350 350 351 354 354 359 362 362 360 360 361 361 363 362 361 361 363 365 364 365 364 364 363 363 362 361 360 359 359 358 356
348 339 327 323 322 325 328 328 331 329 330 331 331 329 332 340 347 349 350 350 350 353 355 359 362 362 360 360 359 359 360 361 360 360 362 364 364 364 364 363 364 362 361 359 359 358 357 357 358
335 334 320 317 320 326 330 333 332 330 331 331 329 329 333 345 347 348 350 349 350 351 354 359 361 360 360 359 359 361 361 362 361 358 361 362 364 364 364 363 362 359 359 358 358 357 358 356 361
330 329 320 320 321 323 326 335 331 329 328 327 332 327 335 341 346 348 349 350 350 352 355 356 356 360 358 357 351 357 359 360 358 359 361 360 362 364 363 363 360 359 359 359 359 358 356 356 359
339 332 321 321 319 319 328 333 333 331 329 336 336 328 330 341 345 347 349 349 350 352 354 357 356 355 358 354 350 351 358 360 358 360 361 362 362 363 363 363 360 359 359 358 358 356 357 359 361
339 328 322 318 319 323 334 330 333 335 331 333 336 333 339 343 344 344 345 347 348 350 353 356 357 359 359 356 351 358 359 357 361 362 363 362 360 361 360 361 361 360 360 359 359 357 358 357 356
331 326 323 329 327 327 331 331 330 330 330 331 332 338 343 344 342 340 340 341 343 346 350 356 355 354 355 354 356 359 360 359 364 362 363 361 359 359 355 361 360 360 359 358 357 357 360 357 355
330 326 331 331 330 331 331 331 334 330 326 329 329 335 340 342 342 342 341 340 342 346 348 356 356 357 356 356 363 359 359 358 360 363 363 359 356 354 354 355 355 354 358 355 355 356 358 356 352
328 332 333 331 331 332 330 333 331 330 329 334 334 336 338 339 339 340 341 343 343 345 346 352 353 357 356 356 359 356 357 357 358 363 363 359 353 353 354 353 354 355 353 354 358 357 361 361 360
327 330 332 333 331 331 333 329 331 330 334 335 335 336 336 337 338 341 342 344 345 345 347 349 353 356 359 358 356 354 357 354 356 361 360 355 352 353 353 354 353 357 357 359 360 359 360 363 361
331 331 330 332 332 332 328 329 330 332 333 333 335 334 335 336 338 341 341 342 344 345 347 349 351 354 357 356 353 348 352 355 354 357 359 357 355 354 352 353 353 359 360 361 361 362 362 361 361
332 325 329 329 331 329 333 327 327 334 334 335 333 334 335 337 339 340 342 342 344 345 346 348 349 351 355 356 352 348 348 351 351 355 357 360 360 359 356 354 356 361 364 364 363 362 361 359 358
325 323 316 328 329 330 329 319 330 336 334 334 332 334 334 337 339 342 343 344 345 346 347 347 346 349 351 353 346 348 349 353 349 351 353 354 358 361 360 354 357 360 364 363 362 360 360 358 355
320 311 312 315 329 327 327 321 328 336 334 333 333 333 334 336 339 342 343 344 345 346 348 347 347 348 351 355 349 347 349 350 350 352 352 353 355 360 358 356 359 363 362 361 356 359 360 356 356
309 310 311 311 320 326 325 325 328 333 333 332 334 334 334 334 337 341 343 344 345 347 349 349 347 351 353 355 352 350 348 350 349 351 355 359 357 358 360 357 360 358 359 359 359 361 358 358 356
312 310 310 313 321 323 323 324 327 331 332 332 333 332 333 334 339 341 343 344 345 347 348 350 348 352 351 349 347 347 345 348 349 352 356 359 359 357 360 355 356 358 358 361 361 359 359 353 359
311 310 310 314 323 322 321 323 327 329 331 333 333 334 331 334 336 340 342 343 344 346 349 351 351 351 351 349 348 347 347 348 350 352 356 359 358 355 356 358 355 358 355 362 362 361 354 356 358
310 309 310 308 314 322 321 319 322 328 331 333 335 336 337 336 334 338 340 343 344 345 348 351 353 352 352 352 350 350 350 350 348 349 353 357 359 359 357 358 355 358 358 354 361 361 359 348 356
307 313 309 308 309 308 321 307 317 322 326 330 332 334 335 337 338 337 340 341 343 345 350 353 354 353 352 353 350 351 345 343 344 347 352 354 359 358 354 355 354 357 354 360 360 360 359 358 347
309 312 310 310 310 312 313 310 314 323 318 323 331 332 334 337 338 338 339 342 344 346 348 352 355 355 352 353 352 348 350 345 347 349 356 364 360 358 354 356 358 356 353 362 363 363 361 357 352
312 312 314 314 311 303 308 308 308 313 316 319 326 332 334 335 338 340 342 343 345 347 349 351 355 356 355 353 351 351 352 352 348 351 350 352 353 353 357 358 359 354 355 364 363 364 360 357 360
311 310 302 302 303 301 311 306 308 314 317 320 322 328 335 336 336 339 340 341 344 346 349 350 354 355 356 354 353 352 354 355 356 358 353 356 350 350 355 359 360 355 360 361 365 366 364 361 359
308 308 302 296 297 301 309 302 308 317 320 324 326 328 334 336 336 337 341 342 345 346 349 350 350 355 350 355 353 356 356 352 352 354 352 351 350 353 357 360 360 361 360 361 362 357 356 358 357
308 305 310 304 305 301 304 308 312 316 317 320 322 328 331 335 336 337 340 341 343 346 349 350 352 353 351 353 350 355 357 356 352 356 357 354 357 353 357 360 361 361 362 362 363 357 357 360 359
310 312 303 304 297 296 302 302 304 311 315 321 322 327 332 335 337 337 339 341 342 345 348 350 352 352 349 347 349 351 355 358 357 356 357 356 354 358 359 360 361 361 362 363 364 356 360 360 356
306 305 307 307 304 299 298 303 312 313 317 322 324 330 331 334 336 337 339 342 344 346 348 349 352 351 347 348 353 353 354 356 357 355 356 358 358 358 359 363 362 361 359 362 363 359 358 359 359
313 309 309 303 303 305 303 303 314 315 318 324 328 330 333 335 337 339 340 341 344 346 348 350 350 350 348 351 347 354 354 354 354 356 356 359 359 359 359 360 360 363 356 359 360 359 356 357 356
Wind_Speed
10 6 2 5 6 6 6 6 6 8 5 2 8 2 5 8 9 5 13 7 17 11 12 13 11 11 12 12 12 11 10 10 10 11 11 12 11 11 12 12 12 12 12 12 11 11 12 12 12
4 2 5 2 5 7 6 2 6 5 7 9 8 2 1 7 8 10 13 14 14 12 11 10 10 10 9 11 11 11 10 9 9 9 10 12 12 11 12 12 13 12 11 11 11 11 11 11 11
4 4 5 5 4 4 6 8 9 9 7 7 5 4 3 6 4 11 17 14 13 13 12 10 12 9 8 10 10 9 10 9 10 9 9 10 12 11 12 11 12 11 11 11 10 10 9 8 8
3 4 5 6 3 4 8 8 8 9 7 3 2 7 7 7 8 8 17 17 15 12 10 13 11 10 9 10 9 9 9 9 9 10 9 10 12 11 11 12 12 10 10 10 8 8 7 5 4
3 3 3 4 4 7 6 5 3 5 4 5 1 6 7 6 9 15 16 15 16 16 13 13 10 10 8 7 8 8 8 9 9 10 10 12 11 12 12 12 11 10 8 7 7 6 5 4 6
3 4 5 6 4 5 5 3 5 3 4 6 4 6 7 9 14 16 15 14 13 12 15 11 11 9 7 8 11 8 7 8 8 8 10 12 13 12 12 11 11 9 8 7 6 5 4 6 8
6 3 1 3 7 5 3 4 6 3 4 7 5 3 8 10 14 14 13 12 11 10 10 10 9 8 9 10 10 7 6 6 9 10 11 10 12 12 12 10 10 8 7 6 6 5 3 4 5
3 3 5 3 1 3 5 7 4 5 6 10 1 5 12 16 15 14 13 11 10 10 11 9 9 11 10 10 9 7 4 7 9 11 13 12 11 11 12 10 8 8 7 6 5 3 3 3 5
1 1 3 3 2 2 5 5 1 4 9 3 3 2 16 19 16 15 13 14 10 8 10 7 6 8 9 8 8 4 6 9 10 11 13 10 8 10 13 12 8 8 8 6 4 2 0 2 4
4 4 7 4 1 6 6 7 7 4 10 6 10 13 17 18 15 15 14 13 13 13 11 9 8 11 8 8 8 7 5 8 7 8 8 6 7 6 8 9 7 7 6 5 2 2 5 9 3
2 5 5 6 1 5 6 5 3 7 8 6 13 17 17 17 14 13 12 12 13 12 10 9 7 9 9 7 6 6 5 6 6 8 9 6 6 7 6 6 6 7 6 5 8 7 5 3 3
1 5 4 3 5 5 6 5 7 3 2 2 14 16 14 15 13 11 11 11 11 11 9 9 10 7 6 6 4 5 5 5 4 4 7 6 4 6 4 3 4 3 3 3 4 3 2 1 2
3 3 3 2 5 5 6 5 2 10 2 9 13 15 14 12 12 9 9 9 8 10 11 11 8 8 8 8 6 1 6 5 6 8 6 5 7 4 5 4 4 2 3 3 3 2 2 2 2
3 1 2 2 3 4 8 6 4 10 5 9 12 15 14 13 12 10 9 9 9 10 10 10 9 9 9 6 7 4 4 5 5 5 6 2 4 4 6 5 5 3 1 2 2 2 1 3 1
4 2 3 4 4 2 6 9 9 4 11 11 14 13 13 12 11 11 10 10 10 9 10 10 10 11 9 9 8 3 4 3 2 3 3 4 4 5 5 5 4 2 2 3 3 4 3 3 3
4 4 5 6 4 3 7 3 9 8 9 12 14 13 13 13 13 11 10 9 10 9 10 10 8 10 11 11 5 4 5 3 3 4 3 4 4 5 6 5 4 3 1 1 1 2 1 1 3
6 7 4 2 5 3 9 4 2 9 11 12 14 12 14 13 13 12 11 10 11 10 10 11 9 10 11 11 8 5 4 3 3 2 4 4 4 5 4 4 3 2 2 1 3 2 2 3 2
4 6 5 7 2 8 9 11 5 9 12 12 13 15 15 15 16 14 13 12 11 12 11 10 10 10 10 9 8 8 8 9 4 5 6 7 6 5 4 4 3 4 3 2 1 3 3 2 2
9 10 11 7 3 6 8 10 9 10 14 15 16 13 16 17 16 14 14 13 12 12 13 12 12 12 10 9 9 8 9 8 9 8 7 6 5 5 5 4 5 4 4 2 2 3 3 3 1
11 12 10 3 1 7 8 12 10 13 16 17 18 17 17 16 17 16 15 14 14 15 14 14 14 14 12 9 8 7 7 8 7 6 7 7 6 6 5 5 4 4 3 4 3 4 3 1 1
14 14 9 11 5 10 11 14 5 11 15 16 18 19 19 20 19 17 15 15 15 15 16 16 15 15 14 12 8 6 6 5 7 7 8 8 8 8 8 6 4 5 5 5 5 5 4 4 2
15 4 8 10 8 6 3 7 7 3 11 17 19 20 20 19 18 18 17 15 16 16 15 16 15 15 14 14 11 11 9 9 9 8 8 6 8 9 9 8 6 6 5 3 5 5 4 4 5
16 6 9 9 9 9 12 8 2 5 6 13 17 20 21 21 21 20 19 17 16 15 16 16 16 15 15 14 12 10 10 9 8 8 8 7 8 9 9 8 7 7 8 6 5 3 4 3 6
2 8 6 5 8 11 7 5 7 3 5 7 1 14 19 21 22 20 19 17 16 15 16 16 17 16 15 15 14 13 12 10 8 9 8 8 8 9 10 8 7 7 9 6 7 5 5 5 4
12 12 10 9 10 8 5 9 10 14 13 11 7 7 14 20 20 19 20 19 18 18 17 17 18 17 17 16 15 15 13 13 11 9 9 9 9 9 11 10 9 8 8 7 6 6 5 6 7
16 16 11 8 9 9 5 7 6 6 10 10 7 5 11 17 19 20 21 19 19 20 20 18 18 18 14 16 14 14 15 11 11 11 9 8 8 10 10 11 10 10 9 9 8 8 8 7 7
9 11 16 17 15 9 13 9 14 10 6 6 7 7 10 15 19 21 20 19 18 18 20 20 19 17 18 15 13 14 13 15 12 13 11 9 8 7 9 11 12 11 11 10 9 8 8 7 7
15 8 10 12 14 17 10 5 8 8 8 9 4 7 9 12 17 18 20 21 18 17 17 19 19 20 18 17 14 15 15 15 14 12 13 12 10 10 8 11 11 11 11 11 10 9 10 9 8
12 14 14 15 10 11 11 5 2 6 6 8 4 4 7 11 14 17 16 18 18 17 16 17 17 19 17 16 15 16 16 16 15 14 14 14 13 12 11 11 10 11 12 12 11 11 10 11 10
12 15 15 10 8 8 9 11 3 6 7 6 4 4 5 6 12 15 16 16 16 16 16 16 17 18 19 14 7 14 12 10 16 15 16 14 14 13 13 12 12 11 13 11 11 13 11 13 12
Wind_Direction
175 188 229 228 239 230 113 86 99 114 118 92 115 24 25 14 14 39 125 114 129 120 133 136 131 134 128 128 123 117 118 118 117 119 118 112 113 115 112 112 112 109 102 98 98 98 96 95 92
137 208 224 269 243 167 111 103 86 63 92 118 117 130 102 82 62 113 126 147 131 131 138 130 125 126 127 124 126 129 129 132 126 123 123 126 120 124 113 114 111 108 105 101 100 100 98 97 94
202 269 264 293 264 113 124 116 107 109 128 150 124 18 24 62 69 126 111 138 135 137 149 137 138 146 148 133 131 135 137 147 145 144 140 130 127 120 117 116 114 112 108 104 104 100 95 90 87
262 210 213 257 165 79 101 130 123 108 110 108 116 103 105 47 142 134 136 152 143 141 138 143 143 142 141 138 143 155 152 152 156 156 155 142 127 128 120 115 112 113 110 112 109 101 95 78 62
220 241 253 201 115 108 147 207 148 137 79 112 305 98 90 93 125 134 150 159 155 146 160 145 146 138 138 131 131 130 141 141 155 161 162 140 137 123 126 118 117 110 118 118 109 98 72 41 21
240 293 243 186 133 127 125 176 168 100 96 115 111 116 84 121 139 146 150 156 158 148 136 140 144 144 136 126 116 111 133 133 141 151 155 143 133 132 125 121 116 121 125 119 101 77 49 25 20
318 305 9 179 177 144 127 191 214 155 134 89 118 100 111 139 134 143 153 150 151 135 119 132 145 129 124 124 124 95 112 121 138 152 138 143 132 128 127 120 119 124 126 115 92 68 26 29 35
300 277 133 9 246 127 150 181 152 237 81 113 341 117 156 138 148 143 147 139 148 154 151 162 150 154 142 145 129 119 133 130 136 135 140 133 128 130 125 131 123 128 120 105 83 50 36 53 68
232 241 103 138 202 154 146 166 139 208 136 91 56 80 123 142 153 155 148 148 167 154 151 152 142 132 139 147 152 139 140 130 139 139 125 132 153 150 171 80 120 117 110 91 77 77 344 194 175
283 359 27 22 208 164 174 166 170 188 149 126 107 108 129 149 162 163 167 165 166 166 155 155 158 147 174 152 155 150 160 157 148 123 133 174 149 88 110 111 127 115 106 105 136 193 228 233 344
50 15 359 34 179 202 173 180 206 193 172 106 140 141 148 156 168 172 175 178 175 170 155 156 161 160 167 149 178 153 150 155 138 145 160 176 141 160 176 139 160 150 189 192 194 191 233 41 6
304 38 7 54 145 161 169 140 206 90 319 91 136 149 155 164 168 167 169 165 166 164 167 169 161 173 155 164 151 153 150 141 136 176 156 142 155 169 150 155 122 163 147 144 255 182 11 279 143
328 54 48 100 154 198 146 194 195 148 19 137 140 154 163 169 160 162 156 152 160 170 164 173 165 163 175 149 140 132 145 163 168 178 155 172 138 158 167 142 176 114 144 205 222 227 220 236 250
11 89 132 174 164 199 230 206 247 156 185 158 163 163 164 167 166 158 168 161 168 169 167 159 175 167 168 163 150 155 131 144 230 125 126 182 167 175 148 169 158 161 97 289 243 222 225 246 220
149 240 246 196 183 217 240 215 217 134 184 187 181 180 172 173 173 172 168 168 173 173 160 162 182 174 171 160 150 150 154 117 91 130 161 138 223 174 158 164 162 120 91 253 212 216 202 243 205
246 252 291 119 219 125 235 346 176 170 196 184 211 190 186 188 186 177 168 173 161 171 165 172 182 172 166 162 139 178 151 157 107 159 164 149 195 182 211 173 158 96 226 187 250 278 204 193 192
195 299 332 355 216 260 226 306 120 180 200 203 197 196 192 193 197 182 179 180 164 172 171 177 174 180 171 151 156 169 169 177 154 247 161 190 198 191 226 184 136 214 244 220 285 99 328 148 145
89 292 305 337 83 227 244 252 204 205 217 214 201 205 199 198 203 192 192 183 178 168 173 180 174 168 179 163 181 177 186 187 162 196 186 205 184 197 220 176 173 242 236 217 40 336 61 16 4
305 286 296 326 61 261 256 267 254 204 215 217 200 227 205 206 204 197 190 189 183 177 173 178 180 168 182 184 188 189 196 186 196 193 184 192 203 193 200 214 187 234 251 320 232 236 179 141 95
262 270 283 61 92 259 290 273 256 222 222 219 212 214 217 204 204 197 193 193 192 184 180 178 183 175 184 187 202 205 210 200 206 205 192 208 213 193 206 223 201 207 214 227 238 247 263 217 185
245 261 298 311 325 250 282 264 228 215 217 223 224 212 213 213 199 195 198 197 194 190 186 182 182 180 185 188 191 193 203 225 201 206 203 205 215 201 217 200 238 201 254 209 215 212 259 273 192
258 270 308 285 276 299 272 305 288 200 209 218 225 219 215 212 208 199 194 197 196 194 187 180 182 182 184 187 190 202 207 208 201 201 202 198 208 203 191 202 207 220 234 251 217 211 275 266 269
249 357 294 291 254 273 208 256 287 210 250 226 222 223 214 207 204 200 197 192 197 188 183 180 180 185 183 185 206 194 223 206 193 202 192 221 187 202 199 195 205 220 229 204 255 186 238 244 297
252 215 229 238 259 255 252 273 287 201 268 332 252 211 213 206 200 198 197 190 189 183 184 180 178 183 187 187 198 211 204 235 217 206 198 201 192 189 202 198 205 219 214 208 214 214 208 261 285
207 225 239 221 209 258 77 286 277 291 293 313 285 210 209 198 201 198 191 188 185 180 184 182 182 186 187 191 193 204 216 215 232 241 219 224 195 198 185 201 200 193 205 214 229 218 266 222 249
211 239 257 268 282 315 142 266 276 299 285 274 285 266 194 199 192 194 190 193 187 183 183 184 184 187 184 192 199 202 209 223 218 225 238 215 229 201 202 200 205 209 206 213 216 227 234 228 233
176 229 253 283 275 255 271 288 284 254 266 268 262 197 196 197 197 189 187 190 188 189 185 184 185 188 188 189 192 206 210 222 222 231 208 228 244 241 201 208 205 209 210 219 222 236 236 241 231
262 295 225 221 259 271 267 273 270 294 328 338 281 201 181 189 195 194 191 191 184 190 189 192 186 192 187 184 190 208 211 215 220 222 227 234 234 233 253 208 215 211 214 220 216 235 220 239 240
193 230 237 276 284 290 277 260 113 278 337 313 287 177 168 177 185 190 192 189 187 188 185 194 190 199 198 196 204 212 208 213 213 219 220 227 230 230 229 225 226 231 225 221 219 230 255 226 229
273 224 216 239 228 241 296 294 259 270 310 298 244 164 140 167 174 180 180 187 182 190 187 196 194 203 209 199 197 217 216 219 211 216 218 221 225 229 228 232 233 225 233 234 241 242 228 237 239